[[{"header":{"parameterUnit":"m.s-1","parameterCategory":1,"la1":30.2991,"la2":30.254,"lo1":-89.0895,"lo2":-89.0444,"dy":0.0017,"dx":0.0017,"nx":28,"ny":28,"refTime":"2025-03-10T03:00:00:Z","depth":0,"parameterNumber":2,"parameterNumberName":"U-component_of_WINDS"},"data":[0,0,0,0,0,0,0,0,0,0,0,0,0,0,0,0,0,0,0,0,0,0,0,0,0,0,0,0,0,0,0,0,0,0,0,0,0,0,0,0,0,0,0,0,0,0,0,0,0,0,0,0,0,0,0,0,0,0,1.9014,1.9014,0,1.9071,1.9072,1.9072,1.9054,1.9053,1.9052,1.9051,1.9108,1.9111,1.9113,0,0,0,0,0,0,0,0,0,0,0,0,0,1.8889,1.8891,1.9014,1.9014,1.9015,1.9071,1.9072,1.9072,1.9054,1.9053,1.9051,1.905,1.9107,1.911,1.9114,0,0,0,0,0,0,0,0,0,0,0,0,0,1.8944,1.8892,1.9013,1.9013,1.9013,1.9071,1.9072,1.9073,1.9055,1.9053,1.9051,1.9049,1.9106,1.911,1.9114,1.9175,0,0,1.9126,1.9128,0,0,0,0,0,0,0,0,1.8941,1.8949,1.9012,1.9013,1.9014,1.9054,1.9049,1.9107,1.9055,1.9039,1.9051,1.9048,1.9091,1.9096,1.9111,1.9178,1.918,1.9127,1.9129,1.9131,1.9132,0,0,0,0,0,0,0,1.8937,1.8946,1.9036,1.9013,1.9014,1.901,1.9016,1.906,1.9075,1.904,1.9039,1.9046,1.9091,1.9107,1.9112,1.9181,1.9126,1.913,1.9132,1.9134,1.9303,1.9305,0,0,0,0,0,0,1.8933,1.8943,1.9034,1.9038,1.8972,1.9013,1.902,1.9043,1.9074,1.9077,1.9048,1.9045,1.9101,1.9108,1.9114,1.9189,1.9131,1.9134,1.9137,1.93,1.9303,1.9305,0,0,0,0,0,0,1.893,1.8941,1.9032,1.899,1.9002,1.9018,1.9043,1.9045,1.9061,1.908,1.9082,1.9061,1.91,1.9109,1.9161,1.9191,1.9136,1.914,1.9298,1.9301,1.9304,1.9338,0,0,0,0,0,0,1.8927,1.894,1.8964,1.8991,1.9004,1.9077,1.9045,1.9047,1.9068,1.9065,1.9093,1.9096,1.9099,1.9155,1.9165,1.9195,1.9143,1.9295,1.9299,1.9303,1.9335,1.9342,1.9349,0,0,0,0,0,1.8922,1.897,1.8965,1.8976,1.9033,1.9079,1.9087,1.909,1.907,1.9094,1.9106,1.9095,1.9186,1.916,1.9171,1.9203,1.9293,1.9298,1.9303,1.9331,1.9341,1.9349,0,0,0,0,0,0,1.8945,1.8974,1.8968,1.9026,1.9051,1.9076,1.9106,1.9099,1.9129,1.9125,1.9128,1.9134,1.9188,1.9201,1.9172,1.9265,1.9237,1.9244,1.9255,1.9264,1.9271,1.9267,1.9146,0,0,0,0,0,1.8957,1.8992,1.9015,1.9064,1.9077,1.909,1.911,1.911,1.9135,1.9145,1.9162,1.9186,1.922,1.9243,1.9275,1.9336,1.9343,1.9364,1.9371,1.9377,1.9383,1.9418,1.9428,1.9321,1.9321,1.932,0,0,1.8982,1.9002,1.9024,1.907,1.9088,1.9125,1.9098,1.9137,1.9165,1.9151,1.9202,1.9215,1.9242,1.93,1.9326,1.9312,1.9415,1.9383,1.9388,1.9391,1.9424,1.9434,1.9443,1.9324,1.9323,1.9323,0,0,1.9046,1.9064,1.9108,1.9128,1.9157,1.9165,1.9176,1.9203,1.9212,1.9262,1.9253,1.9286,1.9344,1.9365,1.9383,1.9457,1.9448,1.9468,1.9505,1.9539,1.9547,1.9555,1.9582,1.9592,1.9474,1.9474,1.9474,0,1.9073,1.9128,1.9131,1.9172,1.9193,1.9183,1.9228,1.9247,1.9285,1.93,1.9284,1.9359,1.9376,1.9439,1.9458,1.9472,1.9485,1.9464,1.9546,1.9553,1.9561,1.9587,1.9597,1.9476,1.9476,1.9475,1.9475,0,1.916,1.9198,1.923,1.9268,1.9293,1.9335,1.9346,1.937,1.9369,1.9379,1.9432,1.9453,1.9491,1.9505,1.9504,1.9569,1.956,1.9545,1.9516,1.9573,1.9598,1.9608,1.9479,1.9478,1.9478,1.9477,0,0,1.9239,1.928,1.9291,1.931,1.9342,1.9372,1.9414,1.9452,1.9473,1.95,1.9537,1.9587,1.9575,1.9595,1.9597,1.9626,1.9685,1.9608,1.9609,1.9623,1.9759,1.977,1.9782,1.968,1.9682,1.9683,1.9757,0,1.9306,1.9381,1.9387,1.9455,1.9491,1.9483,1.952,1.9545,1.9556,1.9588,1.96,1.9636,1.9616,1.9629,1.9658,1.9672,1.9713,1.9667,1.9714,1.9716,1.9708,1.9794,1.9806,1.9875,1.9767,1.9768,1.9769,0,1.9394,1.9426,1.9498,1.9527,1.9542,1.9576,1.9611,1.9642,1.967,1.9676,1.97,1.9698,1.9742,1.9712,1.9774,1.9743,1.9762,1.9772,1.9775,1.978,1.9746,1.9802,1.9896,1.9907,1.9784,1.9783,1.9782,0,1.9446,1.9506,1.9557,1.9573,1.9608,1.9632,1.9647,1.9673,1.9696,1.9727,1.9742,1.9777,1.9797,1.9825,1.9832,1.981,1.9895,1.9865,1.9901,1.9901,1.9919,1.9918,2.0019,1.9931,1.9931,1.9931,1.9931,0,1.9521,1.9565,1.9581,1.9613,1.9663,1.9669,1.9718,1.9732,1.9756,1.979,1.9786,1.9818,1.9826,1.986,1.9866,1.9917,1.9926,1.9932,1.9934,1.9933,1.9933,1.9946,1.9942,1.9934,1.9933,1.9933,1.9932,0,1.9587,1.9599,1.9655,1.9684,1.9692,1.9728,1.9753,1.9784,1.9795,1.9839,1.9849,1.9866,1.9907,1.9917,1.9965,1.9969,2.0029,2.0026,2.002,2.002,2.0056,2.0053,2.017,2.0186,2.0087,2.0088,2.0089,0,1.9634,1.9668,1.9702,1.9725,1.9742,1.9779,1.9803,1.981,1.9835,1.987,1.9897,1.9937,1.9969,2.0034,2.0051,2.0088,2.0085,2.0124,2.0091,2.009,2.0087,2.0085,2.0089,2.013,2.0131,2.0132,2.0132,0,1.9717,1.9722,1.9756,1.9793,1.9822,1.9851,1.9879,1.9898,1.991,1.9938,1.998,2.0005,2.0055,2.0095,2.0132,2.0148,2.0143,2.0143,2.0153,2.0153,2.0149,2.0153,2.0038,2.014,2.0139,2.0139,2.0138,2.0138,1.9775,1.9806,1.9835,1.9874,1.9896,1.9923,1.9954,1.9969,2.0004,2.0046,2.0048,2.0094,2.0122,2.0172,2.0191,2.0227,2.0215,2.023,2.0234,2.0238,2.0241,2.0143,2.0233,2.0233,2.0233,2.0233,2.0233,0,1.9859,1.9877,1.9913,1.9953,1.9984,1.9977,2.0008,2.0035,2.0075,2.0102,2.0135,2.0183,2.0222,2.0243,2.0282,2.0307,2.0305,2.0317,2.0315,2.032,2.0249,2.0236,2.0318,2.0318,2.0318,2.0318,2.0318,2.0318,1.9906,1.9958,1.9967,2.003,2.0049,2.0094,2.0112,2.0137,2.0159,2.0214,2.0247,2.026,2.0285,2.0326,2.0362,2.0367,2.0382,2.0396,2.0399,2.0333,2.0324,2.0316,2.0304,2.0399,2.0399,2.0467,2.0468,2.0468]},{"header":{"parameterUnit":"m.s-1","parameterCategory":1,"la1":30.2991,"la2":30.254,"lo1":-89.0895,"lo2":-89.0444,"dy":0.0017,"dx":0.0017,"nx":28,"ny":28,"refTime":"2025-03-10T03:00:00:Z","depth":0,"parameterNumber":3,"parameterNumberName":"V-component_of_WINDS"},"data":[0,0,0,0,0,0,0,0,0,0,0,0,0,0,0,0,0,0,0,0,0,0,0,0,0,0,0,0,0,0,0,0,0,0,0,0,0,0,0,0,0,0,0,0,0,0,0,0,0,0,0,0,0,0,0,0,0,0,-1.9584,-1.9584,0,-1.9623,-1.9624,-1.9624,-1.9608,-1.9607,-1.9606,-1.9605,-1.9644,-1.9646,-1.9647,0,0,0,0,0,0,0,0,0,0,0,0,0,-1.9493,-1.9495,-1.9584,-1.9584,-1.9585,-1.9623,-1.9624,-1.9624,-1.9608,-1.9607,-1.9605,-1.9604,-1.9643,-1.9645,-1.9648,0,0,0,0,0,0,0,0,0,0,0,0,0,-1.9533,-1.9496,-1.9584,-1.9581,-1.9581,-1.9623,-1.9624,-1.9624,-1.9608,-1.9607,-1.9605,-1.9604,-1.9642,-1.9645,-1.9648,-1.9694,0,0,-1.9657,-1.9658,0,0,0,0,0,0,0,0,-1.953,-1.9536,-1.9581,-1.9581,-1.9582,-1.9609,-1.9606,-1.9648,-1.9608,-1.9598,-1.9605,-1.9603,-1.9633,-1.9637,-1.9647,-1.9696,-1.9697,-1.9657,-1.9659,-1.966,-1.9661,0,0,0,0,0,0,0,-1.9528,-1.9534,-1.9599,-1.9582,-1.9582,-1.9578,-1.9582,-1.9614,-1.9623,-1.9599,-1.9598,-1.9603,-1.9633,-1.9644,-1.9648,-1.9698,-1.9657,-1.9659,-1.9661,-1.9662,-1.9786,-1.9788,0,0,0,0,0,0,-1.9525,-1.9532,-1.9598,-1.96,-1.9552,-1.9581,-1.9585,-1.9602,-1.9623,-1.9624,-1.9604,-1.9602,-1.964,-1.9645,-1.9649,-1.9705,-1.966,-1.9663,-1.9664,-1.9785,-1.9787,-1.9788,0,0,0,0,0,0,-1.9523,-1.9531,-1.9596,-1.9566,-1.9574,-1.9584,-1.9602,-1.9603,-1.9614,-1.9626,-1.9628,-1.9614,-1.9639,-1.9645,-1.9683,-1.9706,-1.9664,-1.9667,-1.9783,-1.9785,-1.9788,-1.9815,0,0,0,0,0,0,-1.9521,-1.9531,-1.9548,-1.9567,-1.9576,-1.963,-1.9604,-1.9605,-1.962,-1.9617,-1.9636,-1.9638,-1.9639,-1.9679,-1.9686,-1.9709,-1.9669,-1.9781,-1.9784,-1.9787,-1.9812,-1.9818,-1.9823,0,0,0,0,0,-1.9518,-1.9554,-1.9549,-1.9557,-1.9598,-1.9631,-1.9636,-1.9637,-1.9622,-1.9639,-1.9647,-1.9637,-1.9702,-1.9683,-1.9691,-1.9715,-1.978,-1.9783,-1.9787,-1.981,-1.9817,-1.9823,0,0,0,0,0,0,-1.9538,-1.9556,-1.9551,-1.9595,-1.9612,-1.9628,-1.9651,-1.9645,-1.9666,-1.9663,-1.9662,-1.9666,-1.9706,-1.9714,-1.9692,-1.9761,-1.9738,-1.9744,-1.9754,-1.9761,-1.9766,-1.9763,-1.9671,0,0,0,0,0,-1.9547,-1.9573,-1.9588,-1.9625,-1.9634,-1.9641,-1.9655,-1.9655,-1.9672,-1.9678,-1.9689,-1.9706,-1.973,-1.9746,-1.9769,-1.9814,-1.9818,-1.9834,-1.984,-1.9844,-1.9849,-1.9873,-1.9881,-1.98,-1.98,-1.98,0,0,-1.9567,-1.9581,-1.9597,-1.9629,-1.9642,-1.9669,-1.9647,-1.9676,-1.9695,-1.9683,-1.9719,-1.9728,-1.9746,-1.9788,-1.9807,-1.9796,-1.9872,-1.9849,-1.9852,-1.9854,-1.9878,-1.9886,-1.9892,-1.9803,-1.9802,-1.9802,0,0,-1.9617,-1.963,-1.9662,-1.9676,-1.9696,-1.97,-1.9708,-1.9726,-1.9732,-1.9768,-1.976,-1.9783,-1.9824,-1.9838,-1.9851,-1.9907,-1.9898,-1.9914,-1.9942,-1.9967,-1.9973,-1.9979,-1.9999,-2.0006,-1.9918,-1.9918,-1.9919,0,-1.9639,-1.9678,-1.9679,-1.9709,-1.9724,-1.9714,-1.9747,-1.976,-1.9787,-1.9797,-1.9785,-1.9837,-1.9849,-1.9894,-1.9908,-1.9918,-1.9927,-1.9911,-1.9972,-1.9978,-1.9983,-2.0002,-2.001,-1.992,-1.992,-1.992,-1.992,0,-1.9705,-1.9732,-1.9756,-1.9783,-1.98,-1.9831,-1.9836,-1.9854,-1.9852,-1.9858,-1.9895,-1.9909,-1.9935,-1.9946,-1.9944,-1.9991,-1.9984,-1.9972,-1.995,-1.9993,-2.001,-2.0018,-1.9923,-1.9922,-1.9922,-1.9921,0,0,-1.9767,-1.9794,-1.9803,-1.9815,-1.9837,-1.9858,-1.9889,-1.9915,-1.993,-1.9949,-1.9974,-2.001,-2.0,-2.0014,-2.0013,-2.0035,-2.0078,-2.002,-2.0021,-2.003,-2.0131,-2.014,-2.0148,-2.0073,-2.0075,-2.0076,-2.013,0,-1.9818,-1.9873,-1.9875,-1.9924,-1.995,-1.9942,-1.9969,-1.9985,-1.9992,-2.0014,-2.0021,-2.0047,-2.0031,-2.004,-2.006,-2.0069,-2.0098,-2.0065,-2.0097,-2.0098,-2.0092,-2.0157,-2.0167,-2.0217,-2.0137,-2.0138,-2.0139,0,-1.9885,-1.9907,-1.9959,-1.9978,-1.9989,-2.0013,-2.0037,-2.0059,-2.0077,-2.008,-2.0097,-2.0093,-2.0125,-2.0102,-2.0145,-2.0122,-2.0136,-2.0142,-2.0144,-2.0146,-2.0121,-2.0162,-2.0233,-2.024,-2.015,-2.0149,-2.0148,0,-1.9926,-1.9968,-2.0004,-2.0015,-2.0038,-2.0055,-2.0065,-2.0082,-2.0098,-2.0119,-2.0129,-2.0153,-2.0167,-2.0185,-2.0189,-2.0172,-2.0232,-2.0209,-2.0235,-2.0235,-2.0248,-2.0247,-2.0322,-2.0257,-2.0257,-2.0257,-2.0257,0,-1.9982,-2.0015,-2.0023,-2.0046,-2.0082,-2.0084,-2.0119,-2.0128,-2.0144,-2.0168,-2.0162,-2.0185,-2.0188,-2.0211,-2.0214,-2.025,-2.0255,-2.0259,-2.0259,-2.0259,-2.0259,-2.0268,-2.0264,-2.0259,-2.0258,-2.0258,-2.0258,0,-2.0033,-2.004,-2.008,-2.0099,-2.0104,-2.013,-2.0146,-2.0167,-2.0174,-2.0204,-2.0211,-2.0221,-2.0249,-2.0254,-2.0286,-2.0288,-2.033,-2.0327,-2.0324,-2.0324,-2.035,-2.0347,-2.0433,-2.0444,-2.0372,-2.0373,-2.0373,0,-2.0069,-2.0094,-2.0115,-2.0131,-2.0143,-2.0169,-2.0185,-2.0188,-2.0205,-2.0228,-2.0247,-2.0274,-2.0296,-2.034,-2.035,-2.0374,-2.0372,-2.04,-2.0375,-2.0375,-2.0372,-2.0371,-2.0373,-2.0404,-2.0405,-2.0406,-2.0406,0,-2.0132,-2.0134,-2.0158,-2.0183,-2.0203,-2.0222,-2.0241,-2.0254,-2.026,-2.028,-2.0308,-2.0325,-2.0358,-2.0385,-2.041,-2.042,-2.0414,-2.0414,-2.0422,-2.0422,-2.0419,-2.0421,-2.0337,-2.0412,-2.0411,-2.0411,-2.0411,-2.0411,-2.0176,-2.0198,-2.0217,-2.0243,-2.0258,-2.0276,-2.0297,-2.0307,-2.0331,-2.0358,-2.0359,-2.039,-2.0408,-2.0441,-2.0453,-2.0477,-2.0468,-2.0478,-2.0481,-2.0484,-2.0486,-2.0416,-2.0481,-2.0481,-2.0481,-2.0481,-2.0481,0,-2.0238,-2.025,-2.0275,-2.0302,-2.0323,-2.0316,-2.0337,-2.0355,-2.0382,-2.04,-2.0422,-2.0455,-2.0481,-2.0493,-2.0519,-2.0536,-2.0534,-2.0543,-2.0541,-2.0544,-2.0493,-2.0484,-2.0544,-2.0544,-2.0544,-2.0544,-2.0544,-2.0544,-2.0273,-2.031,-2.0315,-2.0359,-2.037,-2.0401,-2.0413,-2.043,-2.0444,-2.0481,-2.0503,-2.0511,-2.0527,-2.0554,-2.0578,-2.0581,-2.059,-2.06,-2.0602,-2.0554,-2.0547,-2.0541,-2.0533,-2.0602,-2.0603,-2.0651,-2.0652,-2.0652]}]]